User: anonymous   Login
Location: Brno
(49.2000°N, 16.6330°E)
Time: 23:27:20
(UTC+02:00)
Language:

BREEZE M DEB (TANK) - Orbit

View from above orbital plane
View from above orbital plane
View from above satellite
View from above satellite

Ground track
Ground track

The orbit data is extracted from the following two-line orbital elements,

1 28359U 04022B   15209.81967603  .00002363  00000-0  27306-3 0  9997
2 28359 049.5482 013.2698 4697098 003.3286 080.1969 06.15697173242652
Epoch (UTC): 28 July 2015 19:40:20
Eccentricity: 0.4697098
inclination: 49.5482°
perigee height: 290 km
apogee height: 12102 km
right ascension of ascending node: 13.2698°
argument of perigee: 3.3286°
revolutions per day: 6.15697173
mean anomaly at epoch: 80.1969°
orbit number at epoch: 24265

The dashed part of the orbit path shows where the satellite is in the earth's shadow,  

DLR